QPF
0.00 0.00 0.00 0.00 0.00 0.00 0.00 0.00 0.00 0.00 0.00 0.00 0.00 0.00 0.00 0.00 0.00 0.00 0.00 0.00 0.00 0.00 0.00 0.00 0.00 0.00 0.00 0.00 0.00 0.00 0.00 0.00 0.00 0.00 0.00 0.00 0.00 0.00 0.00 0.00 0.01 0.01 0.00
0.00 0.00 0.00 0.00 0.00 0.00 0.00 0.00 0.00 0.00 0.00 0.00 0.00 0.00 0.00 0.00 0.00 0.00 0.00 0.00 0.00 0.00 0.00 0.00 0.00 0.00 0.00 0.00 0.00 0.00 0.00 0.00 0.00 0.00 0.00 0.00 0.00 0.00 0.00 0.00 0.01 0.01 0.00
0.00 0.00 0.00 0.00 0.00 0.00 0.00 0.00 0.00 0.00 0.00 0.00 0.00 0.00 0.00 0.00 0.00 0.00 0.00 0.00 0.00 0.00 0.00 0.00 0.00 0.00 0.00 0.00 0.00 0.00 0.00 0.00 0.00 0.00 0.00 0.00 0.00 0.00 0.00 0.00 0.00 0.00 0.01
0.00 0.00 0.00 0.00 0.00 0.00 0.00 0.00 0.00 0.00 0.00 0.00 0.00 0.00 0.00 0.00 0.00 0.00 0.00 0.00 0.00 0.00 0.00 0.00 0.00 0.00 0.00 0.00 0.00 0.00 0.00 0.00 0.00 0.00 0.00 0.00 0.00 0.00 0.01 0.01 0.01 0.00 0.01
0.00 0.00 0.00 0.00 0.00 0.00 0.00 0.00 0.00 0.00 0.00 0.00 0.00 0.00 0.00 0.00 0.00 0.00 0.00 0.00 0.00 0.00 0.00 0.00 0.00 0.00 0.00 0.00 0.00 0.00 0.00 0.00 0.00 0.00 0.00 0.00 0.00 0.00 0.01 0.04 0.04 0.02 0.02
0.00 0.00 0.00 0.00 0.00 0.00 0.00 0.00 0.00 0.00 0.00 0.00 0.00 0.00 0.00 0.00 0.00 0.00 0.00 0.00 0.00 0.00 0.00 0.00 0.00 0.00 0.00 0.00 0.00 0.00 0.00 0.00 0.00 0.00 0.00 0.00 0.00 0.00 0.01 0.07 0.10 0.07 0.05
0.00 0.00 0.00 0.00 0.00 0.00 0.00 0.00 0.00 0.00 0.00 0.00 0.00 0.00 0.00 0.00 0.00 0.00 0.00 0.00 0.00 0.00 0.00 0.00 0.00 0.00 0.00 0.00 0.00 0.00 0.00 0.00 0.00 0.00 0.00 0.00 0.00 0.00 0.00 0.06 0.15 0.15 0.09
0.00 0.00 0.00 0.00 0.00 0.00 0.00 0.00 0.00 0.00 0.00 0.00 0.00 0.00 0.00 0.00 0.00 0.00 0.00 0.00 0.00 0.00 0.00 0.00 0.00 0.00 0.00 0.00 0.00 0.00 0.00 0.00 0.00 0.00 0.00 0.00 0.00 0.00 0.00 0.03 0.11 0.15 0.13
0.00 0.00 0.00 0.00 0.00 0.00 0.00 0.00 0.00 0.00 0.00 0.00 0.00 0.00 0.00 0.00 0.00 0.00 0.00 0.00 0.00 0.01 0.00 0.00 0.00 0.01 0.00 0.01 0.00 0.00 0.01 0.01 0.00 0.00 0.00 0.00 0.00 0.00 0.00 0.02 0.05 0.11 0.13
0.00 0.00 0.00 0.00 0.00 0.00 0.00 0.00 0.00 0.00 0.00 0.00 0.00 0.00 0.00 0.00 0.00 0.00 0.00 0.00 0.00 0.01 0.01 0.01 0.01 0.01 0.01 0.01 0.01 0.01 0.01 0.01 0.01 0.01 0.02 0.01 0.01 0.02 0.02 0.02 0.03 0.06 0.10
0.00 0.00 0.00 0.00 0.00 0.00 0.00 0.00 0.00 0.00 0.00 0.00 0.00 0.00 0.00 0.00 0.00 0.00 0.00 0.00 0.00 0.01 0.01 0.01 0.01 0.01 0.02 0.01 0.01 0.02 0.02 0.02 0.02 0.02 0.03 0.03 0.04 0.05 0.04 0.04 0.03 0.04 0.08
0.00 0.00 0.00 0.00 0.00 0.00 0.00 0.00 0.00 0.00 0.00 0.00 0.00 0.00 0.01 0.01 0.01 0.00 0.00 0.00 0.00 0.01 0.01 0.02 0.02 0.02 0.03 0.03 0.05 0.04 0.03 0.03 0.03 0.03 0.03 0.04 0.06 0.06 0.06 0.05 0.05 0.05 0.06
0.00 0.00 0.00 0.00 0.00 0.00 0.00 0.00 0.00 0.00 0.00 0.00 0.00 0.01 0.01 0.01 0.01 0.01 0.01 0.01 0.01 0.01 0.01 0.02 0.04 0.06 0.07 0.09 0.09 0.08 0.05 0.04 0.03 0.03 0.03 0.04 0.04 0.06 0.07 0.08 0.08 0.07 0.06
0.00 0.00 0.00 0.00 0.00 0.00 0.00 0.00 0.00 0.00 0.00 0.00 0.00 0.00 0.01 0.01 0.01 0.02 0.02 0.01 0.02 0.03 0.03 0.04 0.06 0.08 0.09 0.10 0.10 0.09 0.10 0.10 0.07 0.08 0.07 0.03 0.04 0.06 0.09 0.10 0.08 0.07 0.07
0.00 0.00 0.00 0.00 0.00 0.00 0.00 0.00 0.00 0.00 0.01 0.00 0.00 0.01 0.01 0.01 0.02 0.03 0.03 0.04 0.04 0.04 0.05 0.07 0.09 0.11 0.12 0.12 0.12 0.11 0.12 0.13 0.11 0.12 0.09 0.05 0.04 0.05 0.09 0.11 0.09 0.07 0.07
0.00 0.00 0.00 0.00 0.00 0.00 0.00 0.00 0.00 0.00 0.01 0.00 0.01 0.01 0.01 0.02 0.03 0.06 0.05 0.07 0.07 0.07 0.09 0.12 0.14 0.17 0.15 0.13 0.11 0.12 0.11 0.12 0.12 0.12 0.10 0.07 0.04 0.03 0.05 0.07 0.08 0.07 0.06
0.00 0.00 0.00 0.01 0.01 0.01 0.01 0.01 0.00 0.01 0.02 0.02 0.01 0.02 0.04 0.04 0.07 0.08 0.08 0.08 0.10 0.12 0.15 0.15 0.16 0.18 0.16 0.14 0.13 0.14 0.12 0.11 0.10 0.10 0.09 0.07 0.04 0.02 0.02 0.03 0.04 0.04 0.04
0.00 0.00 0.01 0.02 0.02 0.01 0.01 0.02 0.02 0.02 0.04 0.04 0.03 0.05 0.09 0.11 0.13 0.13 0.12 0.11 0.14 0.16 0.16 0.17 0.20 0.21 0.19 0.18 0.17 0.14 0.14 0.12 0.09 0.09 0.07 0.07 0.07 0.03 0.02 0.02 0.01 0.01 0.02
0.00 0.00 0.01 0.01 0.02 0.02 0.02 0.02 0.02 0.02 0.03 0.06 0.07 0.07 0.09 0.11 0.14 0.16 0.13 0.12 0.15 0.17 0.17 0.19 0.22 0.23 0.23 0.23 0.20 0.14 0.11 0.10 0.10 0.08 0.07 0.05 0.05 0.03 0.01 0.01 0.01 0.01 0.01
0.01 0.01 0.01 0.02 0.01 0.01 0.02 0.02 0.02 0.02 0.03 0.05 0.07 0.07 0.07 0.09 0.12 0.15 0.12 0.12 0.18 0.18 0.18 0.21 0.23 0.26 0.24 0.24 0.20 0.14 0.11 0.09 0.08 0.08 0.06 0.04 0.02 0.01 0.01 0.01 0.01 0.02 0.01
0.02 0.01 0.01 0.01 0.01 0.01 0.01 0.02 0.02 0.02 0.03 0.04 0.05 0.04 0.06 0.07 0.10 0.13 0.12 0.13 0.17 0.17 0.16 0.21 0.24 0.24 0.24 0.27 0.26 0.17 0.11 0.08 0.06 0.07 0.05 0.04 0.02 0.02 0.02 0.03 0.03 0.03 0.03
0.02 0.01 0.01 0.01 0.01 0.00 0.00 0.00 0.01 0.01 0.01 0.02 0.02 0.03 0.04 0.05 0.06 0.07 0.08 0.11 0.15 0.16 0.15 0.17 0.22 0.22 0.23 0.25 0.24 0.24 0.17 0.12 0.09 0.07 0.06 0.05 0.04 0.04 0.03 0.03 0.04 0.05 0.06
0.00 0.00 0.00 0.00 0.00 0.00 0.00 0.00 0.00 0.00 0.00 0.00 0.00 0.00 0.01 0.02 0.03 0.04 0.06 0.08 0.09 0.11 0.10 0.14 0.18 0.20 0.20 0.18 0.19 0.26 0.25 0.21 0.18 0.12 0.08 0.06 0.06 0.06 0.05 0.05 0.05 0.05 0.06
0.00 0.00 0.00 0.00 0.00 0.00 0.00 0.00 0.00 0.00 0.00 0.00 0.00 0.00 0.00 0.01 0.01 0.01 0.02 0.03 0.03 0.04 0.05 0.06 0.08 0.11 0.14 0.14 0.15 0.17 0.21 0.23 0.22 0.15 0.09 0.06 0.05 0.05 0.06 0.05 0.05 0.05 0.06
0.00 0.00 0.00 0.00 0.00 0.00 0.00 0.00 0.00 0.00 0.00 0.00 0.00 0.00 0.00 0.00 0.00 0.00 0.00 0.01 0.01 0.02 0.02 0.03 0.05 0.08 0.09 0.11 0.12 0.12 0.13 0.13 0.13 0.12 0.10 0.08 0.07 0.06 0.06 0.07 0.06 0.06 0.06
0.00 0.00 0.00 0.00 0.00 0.00 0.00 0.01 0.01 0.01 0.01 0.00 0.00 0.00 0.00 0.00 0.00 0.00 0.00 0.00 0.01 0.01 0.01 0.02 0.04 0.06 0.07 0.08 0.09 0.10 0.10 0.09 0.08 0.08 0.10 0.11 0.12 0.12 0.10 0.09 0.07 0.07 0.05
MSLP
1010.16 1010.34 1010.72 1011.27 1011.88 1012.46 1012.93 1013.25 1013.41 1013.46 1013.47 1013.51 1013.64 1013.88 1014.21 1014.60 1014.98 1015.30 1015.51 1015.60 1015.61 1015.56 1015.51 1015.51 1015.57 1015.69 1015.85 1016.03 1016.17 1016.27 1016.30 1016.30 1016.26 1016.24 1016.25 1016.30 1016.38 1016.50 1016.61 1016.71 1016.79 1016.83 1016.87
1009.92 1010.24 1010.76 1011.43 1012.14 1012.78 1013.28 1013.60 1013.73 1013.74 1013.70 1013.70 1013.80 1014.01 1014.34 1014.72 1015.09 1015.40 1015.59 1015.67 1015.66 1015.61 1015.58 1015.59 1015.69 1015.85 1016.05 1016.25 1016.41 1016.50 1016.52 1016.49 1016.43 1016.39 1016.38 1016.43 1016.53 1016.66 1016.79 1016.91 1016.99 1017.03 1017.06
1009.75 1010.19 1010.82 1011.59 1012.36 1013.05 1013.57 1013.89 1014.02 1014.00 1013.94 1013.92 1013.99 1014.19 1014.49 1014.85 1015.19 1015.46 1015.62 1015.67 1015.65 1015.61 1015.59 1015.65 1015.79 1015.99 1016.23 1016.44 1016.59 1016.66 1016.65 1016.57 1016.48 1016.41 1016.39 1016.44 1016.55 1016.70 1016.86 1016.99 1017.09 1017.14 1017.17
1009.68 1010.20 1010.91 1011.72 1012.53 1013.24 1013.77 1014.10 1014.22 1014.22 1014.16 1014.14 1014.21 1014.39 1014.67 1014.99 1015.28 1015.51 1015.63 1015.66 1015.63 1015.60 1015.61 1015.71 1015.89 1016.14 1016.39 1016.61 1016.74 1016.77 1016.70 1016.58 1016.43 1016.33 1016.30 1016.35 1016.47 1016.64 1016.82 1016.98 1017.09 1017.17 1017.22
1009.72 1010.28 1011.00 1011.82 1012.63 1013.33 1013.86 1014.19 1014.33 1014.35 1014.32 1014.32 1014.41 1014.59 1014.85 1015.13 1015.38 1015.55 1015.63 1015.64 1015.61 1015.60 1015.65 1015.79 1016.02 1016.29 1016.56 1016.76 1016.86 1016.84 1016.71 1016.52 1016.32 1016.18 1016.13 1016.17 1016.31 1016.49 1016.70 1016.88 1017.03 1017.13 1017.20
1009.84 1010.39 1011.09 1011.87 1012.65 1013.32 1013.83 1014.16 1014.33 1014.39 1014.40 1014.45 1014.56 1014.75 1014.99 1015.23 1015.44 1015.57 1015.62 1015.61 1015.59 1015.60 1015.69 1015.88 1016.14 1016.44 1016.70 1016.88 1016.94 1016.85 1016.66 1016.41 1016.16 1015.98 1015.91 1015.95 1016.10 1016.30 1016.52 1016.73 1016.90 1017.02 1017.11
1010.01 1010.52 1011.17 1011.88 1012.59 1013.21 1013.70 1014.04 1014.23 1014.33 1014.40 1014.49 1014.63 1014.83 1015.06 1015.27 1015.44 1015.54 1015.56 1015.54 1015.53 1015.57 1015.70 1015.92 1016.21 1016.52 1016.77 1016.93 1016.93 1016.80 1016.55 1016.25 1015.96 1015.76 1015.67 1015.71 1015.86 1016.07 1016.31 1016.53 1016.70 1016.84 1016.95
1010.20 1010.65 1011.21 1011.85 1012.47 1013.04 1013.50 1013.83 1014.05 1014.19 1014.30 1014.43 1014.60 1014.80 1015.02 1015.20 1015.34 1015.40 1015.40 1015.38 1015.38 1015.44 1015.60 1015.85 1016.15 1016.46 1016.71 1016.83 1016.80 1016.62 1016.34 1016.00 1015.70 1015.48 1015.39 1015.44 1015.59 1015.81 1016.06 1016.28 1016.46 1016.59 1016.70
1010.38 1010.76 1011.24 1011.78 1012.33 1012.84 1013.26 1013.58 1013.81 1013.98 1014.13 1014.28 1014.46 1014.66 1014.85 1015.00 1015.10 1015.13 1015.12 1015.09 1015.10 1015.17 1015.35 1015.61 1015.91 1016.21 1016.44 1016.54 1016.49 1016.29 1015.99 1015.65 1015.35 1015.14 1015.07 1015.12 1015.29 1015.52 1015.76 1015.97 1016.14 1016.27 1016.37
1010.52 1010.84 1011.24 1011.70 1012.18 1012.63 1013.01 1013.32 1013.56 1013.74 1013.90 1014.06 1014.23 1014.40 1014.56 1014.68 1014.74 1014.74 1014.71 1014.68 1014.68 1014.76 1014.93 1015.18 1015.48 1015.76 1015.96 1016.05 1015.98 1015.79 1015.50 1015.19 1014.91 1014.73 1014.69 1014.76 1014.94 1015.17 1015.41 1015.61 1015.77 1015.88 1015.96
1010.62 1010.89 1011.23 1011.63 1012.04 1012.44 1012.79 1013.08 1013.30 1013.48 1013.63 1013.77 1013.92 1014.06 1014.17 1014.26 1014.29 1014.27 1014.22 1014.17 1014.17 1014.24 1014.39 1014.61 1014.88 1015.13 1015.31 1015.38 1015.32 1015.14 1014.89 1014.62 1014.39 1014.26 1014.25 1014.35 1014.54 1014.77 1015.00 1015.19 1015.34 1015.43 1015.49
1010.67 1010.91 1011.21 1011.56 1011.93 1012.29 1012.60 1012.87 1013.07 1013.22 1013.35 1013.46 1013.57 1013.66 1013.75 1013.79 1013.80 1013.76 1013.70 1013.64 1013.63 1013.67 1013.79 1013.97 1014.19 1014.40 1014.56 1014.62 1014.57 1014.43 1014.22 1014.01 1013.84 1013.75 1013.78 1013.90 1014.09 1014.32 1014.54 1014.72 1014.85 1014.93 1014.98
1010.65 1010.88 1011.16 1011.49 1011.83 1012.16 1012.45 1012.68 1012.85 1012.98 1013.07 1013.14 1013.20 1013.26 1013.31 1013.34 1013.33 1013.29 1013.23 1013.17 1013.13 1013.15 1013.22 1013.36 1013.52 1013.68 1013.81 1013.86 1013.83 1013.73 1013.58 1013.42 1013.31 1013.26 1013.31 1013.44 1013.63 1013.84 1014.04 1014.21 1014.32 1014.38 1014.42
1010.58 1010.81 1011.09 1011.40 1011.73 1012.04 1012.31 1012.51 1012.66 1012.74 1012.79 1012.82 1012.85 1012.88 1012.91 1012.93 1012.93 1012.90 1012.85 1012.79 1012.74 1012.73 1012.76 1012.84 1012.94 1013.06 1013.15 1013.20 1013.19 1013.13 1013.03 1012.93 1012.86 1012.84 1012.89 1013.01 1013.17 1013.35 1013.52 1013.66 1013.75 1013.81 1013.84
1010.44 1010.69 1010.98 1011.29 1011.62 1011.92 1012.17 1012.35 1012.47 1012.52 1012.53 1012.53 1012.53 1012.54 1012.57 1012.59 1012.61 1012.61 1012.58 1012.53 1012.48 1012.44 1012.42 1012.45 1012.50 1012.58 1012.65 1012.70 1012.71 1012.69 1012.64 1012.58 1012.53 1012.52 1012.55 1012.63 1012.74 1012.87 1012.99 1013.08 1013.15 1013.19 1013.22
1010.23 1010.51 1010.82 1011.15 1011.47 1011.77 1012.02 1012.18 1012.27 1012.29 1012.28 1012.25 1012.22 1012.23 1012.26 1012.31 1012.36 1012.39 1012.38 1012.35 1012.30 1012.24 1012.19 1012.17 1012.19 1012.23 1012.29 1012.35 1012.39 1012.41 1012.40 1012.37 1012.33 1012.30 1012.30 1012.31 1012.35 1012.40 1012.45 1012.49 1012.52 1012.54 1012.56
1009.98 1010.28 1010.61 1010.96 1011.30 1011.60 1011.84 1012.00 1012.07 1012.07 1012.03 1011.98 1011.94 1011.94 1011.98 1012.05 1012.13 1012.18 1012.21 1012.19 1012.14 1012.06 1011.99 1011.94 1011.92 1011.95 1012.01 1012.09 1012.17 1012.23 1012.26 1012.25 1012.22 1012.16 1012.10 1012.04 1011.99 1011.94 1011.91 1011.89 1011.87 1011.85 1011.85
1009.71 1010.03 1010.38 1010.74 1011.10 1011.41 1011.65 1011.81 1011.87 1011.86 1011.80 1011.73 1011.68 1011.67 1011.71 1011.79 1011.88 1011.95 1011.99 1011.97 1011.91 1011.82 1011.73 1011.66 1011.63 1011.65 1011.73 1011.84 1011.96 1012.06 1012.13 1012.15 1012.12 1012.03 1011.91 1011.78 1011.63 1011.49 1011.38 1011.28 1011.20 1011.15 1011.12
1009.46 1009.79 1010.15 1010.52 1010.89 1011.21 1011.46 1011.61 1011.67 1011.65 1011.58 1011.50 1011.44 1011.42 1011.45 1011.52 1011.60 1011.66 1011.69 1011.66 1011.58 1011.47 1011.35 1011.26 1011.22 1011.25 1011.35 1011.49 1011.66 1011.82 1011.93 1011.98 1011.95 1011.85 1011.69 1011.48 1011.26 1011.04 1010.85 1010.68 1010.55 1010.46 1010.41
1009.27 1009.59 1009.94 1010.32 1010.69 1011.02 1011.27 1011.44 1011.50 1011.48 1011.41 1011.31 1011.24 1011.20 1011.20 1011.24 1011.29 1011.32 1011.31 1011.25 1011.14 1010.99 1010.85 1010.73 1010.68 1010.71 1010.83 1011.01 1011.22 1011.42 1011.58 1011.67 1011.66 1011.56 1011.37 1011.13 1010.86 1010.59 1010.34 1010.12 1009.96 1009.83 1009.76
1009.18 1009.47 1009.80 1010.16 1010.52 1010.85 1011.11 1011.28 1011.36 1011.35 1011.28 1011.18 1011.09 1011.02 1010.99 1010.99 1010.99 1010.97 1010.91 1010.79 1010.63 1010.44 1010.25 1010.10 1010.03 1010.06 1010.18 1010.38 1010.62 1010.86 1011.07 1011.19 1011.22 1011.13 1010.96 1010.72 1010.43 1010.14 1009.87 1009.64 1009.45 1009.31 1009.23
1009.22 1009.45 1009.74 1010.06 1010.40 1010.72 1010.98 1011.16 1011.26 1011.27 1011.21 1011.12 1011.02 1010.93 1010.85 1010.80 1010.74 1010.66 1010.53 1010.35 1010.13 1009.88 1009.64 1009.45 1009.35 1009.34 1009.45 1009.64 1009.90 1010.16 1010.40 1010.56 1010.63 1010.58 1010.45 1010.24 1009.98 1009.71 1009.46 1009.24 1009.07 1008.94 1008.86
1009.39 1009.56 1009.77 1010.04 1010.34 1010.63 1010.89 1011.09 1011.20 1011.24 1011.21 1011.12 1011.02 1010.91 1010.80 1010.70 1010.58 1010.43 1010.24 1010.00 1009.72 1009.41 1009.12 1008.87 1008.71 1008.66 1008.72 1008.89 1009.12 1009.38 1009.63 1009.82 1009.93 1009.95 1009.87 1009.72 1009.53 1009.32 1009.12 1008.95 1008.82 1008.73 1008.68
1009.71 1009.78 1009.91 1010.11 1010.35 1010.61 1010.86 1011.06 1011.19 1011.25 1011.24 1011.17 1011.07 1010.94 1010.81 1010.67 1010.50 1010.31 1010.06 1009.77 1009.43 1009.08 1008.73 1008.42 1008.20 1008.08 1008.08 1008.18 1008.36 1008.60 1008.83 1009.04 1009.19 1009.27 1009.26 1009.20 1009.10 1008.97 1008.86 1008.76 1008.69 1008.66 1008.66
1010.14 1010.12 1010.16 1010.27 1010.45 1010.66 1010.88 1011.07 1011.21 1011.28 1011.29 1011.23 1011.13 1010.99 1010.84 1010.67 1010.47 1010.24 1009.96 1009.64 1009.27 1008.87 1008.48 1008.12 1007.83 1007.63 1007.55 1007.57 1007.68 1007.86 1008.07 1008.28 1008.46 1008.59 1008.67 1008.70 1008.69 1008.67 1008.65 1008.64 1008.66 1008.70 1008.76
1010.68 1010.57 1010.52 1010.54 1010.64 1010.80 1010.97 1011.13 1011.26 1011.32 1011.32 1011.26 1011.14 1010.99 1010.82 1010.62 1010.40 1010.15 1009.87 1009.53 1009.15 1008.74 1008.31 1007.91 1007.56 1007.29 1007.11 1007.05 1007.08 1007.19 1007.37 1007.57 1007.77 1007.95 1008.10 1008.22 1008.32 1008.40 1008.48 1008.56 1008.66 1008.78 1008.91
Thickness
5846 5840 5825 5820 5816 5813 5811 5808 5804 5801 5797 5793 5790 5787 5785 5782 5780 5777 5775 5773 5771 5769 5767 5765 5763 5761 5759 5758 5756 5754 5753 5751 5750 5749 5748 5747 5746 5745 5744 5744 5745 5746 5742
5850 5840 5825 5820 5816 5813 5809 5806 5803 5800 5796 5793 5789 5786 5784 5781 5779 5777 5775 5773 5771 5769 5766 5764 5762 5760 5759 5757 5755 5753 5752 5751 5749 5748 5748 5747 5745 5744 5743 5743 5744 5746 5742
5848 5838 5825 5819 5815 5811 5808 5805 5801 5798 5795 5791 5788 5785 5783 5781 5778 5776 5774 5772 5770 5768 5766 5764 5762 5760 5758 5756 5754 5753 5751 5750 5749 5748 5748 5752 5748 5744 5743 5742 5742 5741 5740
5846 5837 5827 5819 5814 5810 5807 5803 5800 5797 5793 5790 5787 5784 5782 5779 5777 5776 5774 5772 5770 5768 5766 5764 5762 5760 5757 5755 5754 5752 5751 5749 5749 5749 5753 5755 5753 5746 5743 5742 5741 5740 5739
5843 5836 5826 5817 5813 5809 5805 5802 5798 5795 5792 5789 5786 5783 5781 5779 5777 5775 5773 5771 5769 5767 5765 5763 5761 5759 5757 5755 5753 5752 5750 5749 5749 5750 5755 5754 5753 5747 5744 5742 5741 5740 5739
5841 5835 5825 5816 5812 5808 5804 5800 5797 5793 5790 5787 5785 5782 5780 5778 5776 5775 5773 5771 5769 5767 5765 5763 5761 5759 5757 5755 5753 5752 5750 5750 5750 5755 5756 5754 5754 5748 5745 5743 5742 5741 5740
5841 5835 5824 5815 5810 5806 5802 5799 5795 5792 5789 5787 5784 5782 5780 5778 5776 5774 5772 5770 5769 5767 5765 5763 5761 5759 5757 5755 5754 5752 5751 5750 5751 5758 5757 5756 5754 5750 5746 5744 5743 5742 5741
5840 5834 5823 5813 5808 5804 5801 5797 5794 5791 5788 5786 5783 5781 5779 5777 5775 5774 5772 5770 5768 5766 5765 5763 5761 5759 5758 5756 5754 5753 5752 5751 5755 5759 5759 5758 5756 5751 5748 5746 5745 5744 5743
5839 5833 5824 5815 5808 5803 5799 5796 5793 5790 5787 5785 5782 5780 5778 5776 5774 5773 5771 5770 5768 5766 5765 5763 5762 5760 5759 5757 5756 5755 5753 5752 5754 5760 5762 5761 5758 5753 5749 5748 5747 5746 5745
5835 5830 5824 5818 5811 5805 5800 5795 5791 5788 5786 5783 5781 5779 5777 5775 5774 5772 5771 5769 5768 5766 5765 5763 5762 5761 5759 5758 5757 5756 5755 5754 5757 5762 5763 5763 5758 5754 5751 5750 5749 5748 5747
5828 5826 5823 5818 5811 5806 5803 5798 5791 5787 5784 5782 5780 5778 5775 5777 5779 5776 5774 5771 5767 5765 5764 5763 5762 5761 5760 5760 5759 5757 5756 5759 5764 5765 5764 5762 5758 5754 5752 5751 5751 5750 5749
5821 5820 5819 5816 5810 5805 5802 5798 5793 5790 5787 5783 5783 5780 5778 5778 5777 5777 5774 5770 5767 5764 5763 5762 5762 5760 5760 5763 5764 5759 5760 5763 5764 5765 5765 5761 5757 5755 5753 5753 5752 5751 5751
5820 5817 5815 5811 5806 5804 5799 5797 5793 5791 5788 5784 5781 5778 5776 5775 5775 5773 5773 5771 5767 5764 5764 5765 5763 5763 5764 5763 5762 5762 5762 5763 5764 5765 5765 5760 5757 5755 5754 5753 5753 5752 5752
5819 5816 5814 5808 5802 5798 5796 5793 5789 5787 5785 5783 5780 5775 5775 5773 5771 5771 5769 5768 5767 5765 5764 5763 5763 5763 5762 5761 5760 5760 5759 5759 5760 5761 5760 5758 5756 5754 5754 5754 5753 5753 5753
5815 5813 5810 5805 5799 5794 5789 5786 5785 5783 5782 5779 5774 5773 5769 5769 5768 5767 5765 5762 5762 5762 5761 5759 5759 5759 5758 5758 5757 5758 5757 5756 5756 5756 5756 5755 5754 5753 5752 5753 5753 5752 5752
5814 5811 5808 5801 5796 5790 5785 5781 5780 5779 5776 5774 5772 5770 5766 5764 5763 5761 5760 5758 5758 5757 5757 5756 5755 5754 5754 5754 5753 5753 5753 5753 5752 5752 5752 5753 5752 5751 5751 5751 5751 5752 5752
5813 5810 5803 5798 5793 5786 5782 5778 5777 5775 5773 5771 5769 5765 5761 5759 5758 5755 5755 5754 5754 5752 5751 5750 5750 5749 5748 5749 5748 5748 5748 5748 5748 5748 5748 5749 5750 5750 5749 5749 5749 5749 5750
5811 5805 5800 5796 5790 5783 5778 5774 5773 5772 5769 5767 5765 5762 5758 5755 5753 5751 5751 5751 5749 5747 5746 5745 5744 5743 5743 5742 5741 5741 5742 5742 5743 5743 5744 5745 5745 5747 5749 5748 5747 5747 5747
5806 5800 5794 5789 5785 5780 5775 5771 5768 5766 5763 5761 5760 5757 5754 5751 5749 5748 5747 5747 5745 5742 5742 5741 5741 5738 5736 5736 5735 5735 5735 5736 5737 5738 5739 5741 5742 5742 5744 5746 5745 5745 5745
5801 5795 5789 5783 5778 5775 5771 5766 5763 5761 5759 5757 5755 5752 5749 5747 5745 5744 5743 5743 5741 5738 5737 5735 5734 5733 5731 5730 5729 5730 5731 5733 5733 5734 5734 5737 5739 5740 5741 5743 5744 5744 5743
5793 5787 5782 5777 5772 5768 5764 5760 5757 5756 5755 5754 5752 5748 5745 5743 5741 5739 5738 5737 5736 5734 5733 5732 5729 5727 5726 5726 5721 5721 5725 5728 5729 5729 5730 5732 5735 5737 5738 5739 5739 5741 5742
5783 5778 5774 5769 5766 5762 5758 5755 5752 5749 5749 5748 5746 5742 5740 5738 5736 5737 5734 5732 5732 5729 5728 5727 5725 5722 5722 5722 5717 5712 5713 5718 5723 5729 5729 5728 5731 5732 5734 5735 5734 5734 5735
5773 5770 5768 5763 5759 5756 5753 5750 5747 5743 5742 5742 5740 5738 5736 5733 5731 5729 5728 5727 5726 5725 5725 5723 5720 5717 5716 5718 5716 5710 5708 5711 5717 5722 5725 5727 5727 5727 5729 5729 5728 5728 5728
5763 5762 5758 5754 5751 5748 5745 5743 5739 5735 5734 5733 5732 5732 5730 5728 5726 5724 5723 5721 5720 5720 5720 5719 5719 5715 5712 5712 5713 5713 5712 5713 5707 5710 5716 5721 5722 5722 5724 5725 5725 5724 5723
5753 5751 5749 5745 5742 5740 5737 5735 5732 5731 5731 5731 5728 5726 5723 5724 5721 5720 5718 5716 5714 5714 5714 5712 5711 5710 5709 5708 5709 5709 5708 5707 5706 5703 5705 5711 5714 5718 5718 5718 5718 5718 5717
5742 5741 5740 5736 5733 5731 5729 5728 5725 5724 5722 5721 5720 5719 5719 5720 5718 5716 5713 5711 5709 5709 5708 5706 5706 5705 5704 5704 5704 5705 5704 5703 5703 5702 5701 5703 5704 5707 5709 5709 5710 5710 5710